Location: Mahannah Oil Field
(37.4664°N, 96.6003°W)
Time: 09:22:52
(UTC+00:00)

Courier 1B - Pass Details

Date: 22 January 2021
Orbit: 962 x 1209 km, 28.3° (Epoch: 02 March)

Event Time Altitude Azimuth Distance (km) Brightness Sun altitude
Rises 09:43:10 0° 260° (W) 3,634 - -46.1°
Reaches altitude 10° 09:46:03 10° 251° (WSW) 2,686 - -45.5°
Maximum altitude 09:51:44 33° 190° (S) 1,562 - -44.4°
Exits shadow 09:56:38 14° 132° (SE) 2,469 9.9 -43.5°
Drops below altitude 10° 09:57:32 10° 128° (SE) 2,747 10.2 -43.3°
Sets 10:00:31 0° 119° (ESE) 3,728 11.1 -42.7°
